Helicity
274 277 240 202 181 194 272 246 219 120 81 47 26 60 104 117 90 81 66 93 118 94 79 71 58 37 20 12 5 10 7 23 35 74 136 197 223 152 156 175 187 193 277 249
374 223 197 190 183 254 157 70 62 39 46 19 51 88 121 87 68 59 64 88 83 81 100 92 40 44 42 32 39 25 13 18 42 76 106 134 177 143 206 208 247 345 296 272
419 262 294 346 222 105 52 24 19 64 47 96 161 156 105 96 40 46 82 89 73 86 89 69 65 49 39 33 40 35 39 42 44 56 79 115 127 116 192 223 278 329 324 282
433 359 396 323 196 115 59 62 57 87 87 234 193 108 69 70 75 97 128 126 102 109 89 73 49 41 38 25 32 25 32 45 56 75 88 92 100 142 162 198 259 292 324 297
439 347 260 170 79 72 89 61 241 246 261 204 156 99 60 119 102 110 138 137 107 64 50 39 34 40 23 23 37 67 59 48 47 65 78 115 69 115 175 196 238 304 376 358
324 408 394 252 211 248 243 133 316 283 287 214 162 173 73 71 62 61 105 123 66 45 36 12 18 9 27 35 40 71 60 44 43 54 86 78 98 125 194 259 339 370 285 255
131 170 168 168 314 197 190 253 306 275 202 134 86 78 40 40 23 68 106 250 66 40 28 21 18 31 42 28 44 61 38 43 53 39 60 43 92 136 192 207 206 226 223 187
126 106 137 322 230 217 325 249 215 194 134 93 26 31 38 32 -2 47 227 229 72 37 25 40 26 27 35 30 58 88 67 80 44 44 65 75 101 123 138 193 195 204 199 167
246 221 323 247 226 183 160 143 113 102 117 48 11 44 46 -5 -14 36 230 132 57 27 40 42 36 36 30 38 65 122 61 87 83 60 61 74 76 91 124 148 157 181 200 198
211 153 137 132 134 114 107 128 102 95 77 74 3 75 34 -24 -18 -6 227 83 38 10 18 30 35 41 36 9 29 84 60 55 59 71 85 70 75 86 111 128 147 171 199 183
126 114 100 79 88 122 104 76 73 72 83 90 83 46 20 -24 -35 -22 214 67 34 4 33 36 33 45 55 53 43 -1 19 85 55 46 42 68 78 90 100 102 127 145 136 172
134 64 123 67 66 68 42 34 28 36 49 54 56 36 20 -10 4 -6 64 20 12 1 48 45 27 41 60 64 63 29 29 30 61 69 39 41 52 73 80 101 104 107 134 142
64 30 33 27 30 28 29 53 61 62 58 35 24 17 18 28 31 44 17 6 13 60 90 66 52 66 79 78 77 55 36 39 41 47 78 76 67 72 84 98 78 87 90 103
23 29 26 28 35 52 69 71 77 53 39 37 56 53 35 33 46 47 42 81 88 98 97 72 70 87 103 114 115 106 93 60 36 60 89 102 97 97 106 114 109 99 77 95
28 50 75 67 42 37 51 54 39 28 42 46 50 18 24 39 70 77 89 104 115 134 151 140 119 101 80 91 106 97 84 81 58 54 68 87 107 121 129 126 116 117 143 128
66 104 82 58 52 63 59 44 36 38 39 34 21 21 29 41 44 53 68 84 91 114 165 171 136 120 95 97 108 118 109 97 82 70 67 66 78 88 104 119 125 154 148 141
84 64 33 9 9 20 20 13 10 11 12 12 20 23 28 40 46 56 79 107 133 147 153 167 146 133 130 112 96 120 111 99 89 85 77 74 76 82 86 96 113 138 163 171
48 19 9 14 19 10 10 10 10 5 8 16 20 16 17 31 54 74 86 95 119 137 140 122 123 111 128 126 130 123 91 86 83 79 74 83 91 89 87 94 114 133 166 172
33 13 7 3 7 7 9 8 14 15 15 17 18 25 20 30 78 102 92 87 90 93 99 100 109 106 120 120 94 83 83 83 83 87 80 74 81 94 95 101 109 113 113 118
60 48 25 10 11 8 7 7 11 21 27 32 26 27 38 52 73 95 91 98 103 106 96 88 92 93 89 86 62 80 93 98 100 102 97 89 88 87 86 89 77 71 71 78
20 4 5 3 -5 2 -1 7 14 24 40 46 50 57 69 74 81 71 72 79 92 92 91 88 80 83 82 79 94 106 110 114 117 112 106 101 95 93 94 89 87 87 90 89
6 14 5 -5 -4 -14 -5 15 22 31 45 59 71 85 100 104 104 117 115 88 82 79 83 94 104 119 109 108 114 118 114 110 108 105 104 101 102 100 101 104 102 100 100 101
26 26 31 27 23 24 16 13 12 20 42 68 74 80 92 111 104 98 109 112 103 116 124 141 138 142 146 134 130 126 122 117 115 115 111 111 111 111 111 114 112 111 113 110
29 23 21 9 15 21 29 36 37 44 53 77 105 118 119 143 165 153 150 148 151 161 172 170 179 186 169 155 152 143 138 133 127 125 120 122 113 110 112 111 111 110 113 120
53 46 26 27 35 45 48 48 49 50 60 86 122 163 192 186 150 153 158 161 167 172 201 234 228 221 195 184 175 158 151 151 140 125 124 120 117 117 117 119 127 127 129 136
67 53 43 35 33 42 55 60 57 66 67 83 118 151 176 180 181 183 181 175 183 199 208 220 225 221 213 202 181 168 165 158 153 146 135 135 137 132 132 129 134 143 150 155
61 64 72 71 72 78 69 65 65 83 91 106 130 154 166 176 188 181 175 177 188 205 218 226 229 233 221 207 185 175 176 181 179 154 157 148 141 141 140 140 143 146 153 162
Wind_Speed
78 80 73 71 67 63 71 71 75 75 72 79 88 89 85 80 79 85 81 74 71 61 51 46 42 46 46 48 50 43 42 42 46 41 47 37 24 27 20 14 14 14 16 20
80 77 77 80 72 69 64 62 65 66 74 76 84 76 73 75 79 84 79 68 57 48 45 44 49 54 57 59 56 49 49 51 44 36 25 22 24 23 23 21 19 21 22 21
85 63 70 82 66 57 55 51 54 65 69 72 74 73 75 83 79 74 68 57 41 38 48 56 59 62 65 67 62 57 59 55 49 46 40 34 28 27 32 28 23 23 22 23
68 60 87 64 42 38 45 52 53 64 71 69 71 72 78 69 67 63 58 49 40 46 57 58 64 66 66 67 65 62 57 53 47 39 38 34 30 27 28 29 26 25 25 20
62 63 69 65 59 52 51 59 52 58 62 66 70 78 68 52 60 62 62 56 56 53 53 58 62 61 65 65 59 53 52 44 38 30 29 25 21 22 21 21 23 23 24 21
53 67 77 53 39 41 50 76 46 57 65 70 70 83 78 69 73 69 64 70 58 51 51 56 57 62 64 62 57 54 46 40 33 30 26 19 21 18 21 23 24 24 23 18
58 65 66 53 44 45 67 70 55 62 68 69 70 60 58 65 69 69 78 74 59 49 51 55 57 60 63 62 57 46 42 35 31 29 23 21 12 8 5 14 13 10 12 8
54 65 80 45 46 59 62 59 63 68 68 66 55 52 57 60 76 73 70 64 59 50 53 48 55 57 60 58 53 41 40 35 28 21 19 16 11 8 7 9 8 7 7 8
46 52 46 46 55 62 65 69 70 77 67 59 56 59 62 78 76 76 72 65 59 53 47 47 51 51 51 53 51 37 31 28 24 16 17 12 12 10 8 6 5 5 6 7
58 62 68 67 65 65 63 68 71 60 57 60 59 69 81 84 77 73 71 66 58 45 44 45 41 40 41 43 46 41 29 27 28 19 17 15 19 14 10 9 7 6 6 5
67 71 73 69 63 57 56 58 60 61 59 61 68 81 84 86 79 72 73 68 56 47 40 37 37 37 35 35 36 36 30 24 26 26 19 17 19 16 15 12 6 4 5 7
74 60 61 63 57 57 58 55 54 55 58 62 69 76 80 79 75 75 73 65 58 47 37 36 38 35 32 29 30 33 33 33 25 23 25 24 19 18 21 18 11 12 9 7
61 56 59 59 55 53 54 56 55 50 53 72 71 76 74 74 72 70 65 55 42 34 35 40 39 34 28 27 29 32 34 31 36 35 29 25 24 22 20 23 22 18 14 11
49 54 58 54 56 58 63 64 59 48 48 61 62 63 65 66 66 59 48 37 37 37 39 40 35 31 29 29 32 31 34 34 31 33 31 35 32 29 25 21 18 20 16 15
47 47 56 67 72 69 61 55 53 49 53 53 50 53 57 60 58 47 41 36 37 38 39 36 35 36 35 34 36 37 37 36 35 32 27 28 33 33 35 32 28 26 23 19
47 37 46 52 56 50 46 46 48 50 51 51 55 55 58 56 50 44 41 40 39 40 39 39 39 41 40 38 38 38 37 36 35 35 35 32 31 31 34 35 34 31 28 26
38 35 44 47 49 49 49 48 47 50 52 54 58 61 61 58 50 45 41 38 35 35 34 34 37 39 38 34 35 37 36 35 35 35 36 36 35 30 29 29 31 32 32 29
35 39 43 49 51 52 52 50 49 52 54 57 58 59 56 52 48 42 37 34 33 35 37 37 37 37 36 34 37 36 32 31 33 34 34 32 32 30 30 31 32 31 31 29
46 46 45 46 49 51 53 53 51 52 52 53 56 57 55 48 38 33 33 35 34 33 34 32 31 31 32 34 33 29 27 27 28 29 30 29 29 29 28 28 28 27 27 25
44 44 46 48 50 52 55 53 51 52 52 53 53 51 48 43 36 28 26 29 31 30 27 26 28 29 29 29 28 26 26 26 26 26 26 27 26 26 25 25 23 23 22 21
48 52 54 56 58 58 57 54 53 51 53 51 48 45 41 37 33 30 27 26 28 26 27 26 26 27 27 26 26 25 25 25 25 25 26 26 26 26 26 26 26 25 25 24
55 57 59 61 61 62 59 55 53 53 51 50 44 36 33 33 30 31 32 27 26 26 26 26 27 27 24 24 25 25 25 25 25 25 26 26 26 26 27 27 28 28 29 30
62 63 65 66 67 68 63 59 54 51 50 46 41 35 31 29 27 28 28 28 26 25 25 26 26 24 24 25 25 25 26 26 26 27 27 27 28 28 28 29 30 31 32 33
66 69 70 71 69 70 68 64 56 53 49 45 40 35 31 31 30 30 27 26 25 25 25 25 24 23 24 24 24 25 26 26 27 27 28 29 29 30 31 32 33 34 35 37
72 74 74 73 74 73 71 65 58 53 48 44 39 37 36 36 33 27 26 25 24 23 23 25 24 23 24 24 24 25 26 27 28 28 29 30 32 33 34 35 37 38 38 40
71 72 74 73 73 71 66 61 56 50 45 43 41 36 34 31 28 27 27 26 26 24 25 26 25 24 23 23 24 25 26 28 29 30 31 33 33 35 36 37 39 40 41 41
70 69 70 70 66 63 57 51 46 41 38 37 36 31 29 28 27 27 27 27 27 25 24 24 24 24 23 24 25 26 27 28 30 31 33 35 36 37 38 39 40 41 42 43
Wind_Direction
295 296 298 296 293 290 292 295 292 297 295 304 306 311 314 315 317 320 321 321 324 326 329 330 331 325 324 320 317 321 316 307 300 296 286 283 274 264 265 239 230 234 234 260
296 297 296 294 291 292 291 291 293 294 296 306 309 313 317 318 319 319 320 321 324 326 331 333 326 321 318 314 317 317 313 310 310 304 290 272 261 250 247 248 240 232 239 252
297 303 304 298 291 286 289 290 295 298 305 314 314 316 318 320 321 322 324 325 327 332 325 317 317 317 311 309 310 310 307 311 311 307 301 291 275 257 254 249 243 237 237 244
300 304 298 306 316 309 301 301 300 302 307 313 315 318 321 324 324 327 331 328 326 318 315 318 315 317 313 307 302 304 314 315 315 318 309 298 281 263 253 248 242 238 245 230
298 296 299 302 302 300 303 308 313 311 314 317 318 319 320 331 331 326 323 318 304 306 316 314 316 320 312 309 311 313 316 325 328 329 317 309 290 265 253 246 243 239 244 243
296 298 300 318 319 323 319 307 313 318 319 320 322 316 319 325 318 315 312 294 298 307 314 314 318 313 318 322 319 317 322 326 334 327 322 319 290 275 267 259 253 252 251 249
285 292 302 308 314 317 307 312 323 323 321 320 318 321 325 327 326 308 284 281 295 302 306 312 318 324 324 324 325 331 328 328 330 321 324 318 327 313 276 273 258 247 242 225
288 292 297 313 312 306 316 320 320 322 322 321 319 321 325 325 311 289 284 284 278 295 302 323 323 322 326 333 333 338 321 321 321 332 331 326 343 350 316 291 265 245 246 251
296 302 311 312 313 314 315 311 312 315 315 317 315 317 316 299 295 291 276 288 296 297 310 317 323 328 336 344 340 348 333 318 325 356 335 350 340 334 315 302 283 234 214 239
301 299 301 305 311 312 312 310 312 312 313 313 308 306 300 286 293 294 275 286 303 302 307 317 327 338 347 358 3 360 329 317 313 336 335 340 315 317 319 303 287 257 231 236
296 300 305 308 311 314 315 316 315 312 310 310 304 294 292 280 279 281 278 287 293 295 311 323 325 336 346 359 9 14 9 355 316 314 325 325 317 316 312 307 287 216 221 270
299 309 309 313 319 320 318 319 319 317 313 309 302 295 290 279 284 274 276 278 279 291 309 321 318 330 344 352 2 359 3 338 324 317 311 314 320 320 313 308 305 301 301 299
307 312 312 316 316 318 317 318 319 319 315 301 301 295 288 282 288 284 281 286 294 305 312 311 321 333 345 348 352 348 347 353 318 304 304 306 305 307 308 306 300 298 301 300
312 314 313 316 314 312 309 311 313 321 320 313 312 305 299 289 288 292 297 302 301 303 302 307 324 332 337 341 337 340 336 336 342 324 311 295 294 296 300 298 299 298 298 297
318 319 318 312 305 303 307 311 312 317 319 320 318 312 304 293 291 303 306 306 306 305 308 315 318 323 321 324 324 325 325 325 329 331 330 316 302 297 289 291 292 295 297 292
320 324 319 320 317 321 325 324 319 317 317 317 310 309 306 308 308 307 308 305 303 305 308 309 311 312 315 317 319 320 320 324 325 324 321 317 310 304 296 291 289 287 288 287
320 324 312 314 312 305 314 329 328 321 316 311 307 303 302 302 306 307 308 309 309 312 316 317 314 318 321 322 320 320 322 322 322 323 320 315 312 310 306 301 295 290 287 287
314 312 320 308 308 310 314 322 328 317 314 314 316 314 315 315 311 312 310 311 312 312 310 312 317 321 321 324 323 322 326 328 328 326 324 323 320 317 312 305 300 297 294 292
300 306 319 320 312 314 316 319 330 329 332 334 325 324 323 329 334 328 318 312 309 312 311 316 322 327 329 328 331 335 338 339 339 336 334 333 331 328 324 319 314 310 306 301
307 308 310 313 316 314 315 324 329 330 332 334 331 335 341 349 349 357 353 334 322 318 319 322 329 330 333 334 338 351 354 349 347 347 347 349 350 351 350 347 344 337 330 322
307 302 305 311 314 309 311 319 324 329 326 330 338 338 347 358 8 4 359 348 336 330 327 326 328 329 333 338 346 351 0 3 0 357 355 357 357 356 353 351 346 338 334 331
309 310 310 310 311 311 315 317 320 322 323 325 334 348 354 352 356 356 349 350 345 337 333 330 332 336 343 347 350 354 358 358 356 356 355 355 355 355 352 347 341 335 329 324
309 309 310 309 308 307 311 313 317 320 320 322 326 331 337 345 349 339 338 345 350 345 343 338 340 344 344 344 346 348 351 351 350 349 349 349 349 348 345 341 337 334 330 328
311 309 309 307 308 307 307 306 311 314 316 317 318 319 321 323 331 334 340 341 340 339 338 338 343 348 348 347 349 351 351 350 348 347 347 347 345 343 341 338 335 332 331 329
311 310 309 308 306 306 305 305 305 306 309 311 313 313 313 314 313 321 326 330 332 333 334 335 337 340 342 345 348 349 350 349 349 347 343 342 340 339 337 335 333 331 331 330
315 314 311 309 306 305 305 304 302 302 302 303 305 308 311 314 315 315 316 318 319 321 322 323 326 332 336 338 342 343 344 343 342 341 340 338 338 336 334 332 332 332 332 332
316 315 314 313 313 310 309 309 308 304 302 301 302 308 309 310 311 310 311 310 313 315 317 319 322 326 329 332 335 337 338 338 336 336 336 334 334 334 333 333 332 331 332 332